[[{"header":{"parameterUnit":"m.s-1","parameterCategory":1,"la1":30.2992,"la2":30.254,"lo1":-89.0895,"lo2":-89.0443,"dy":0.0025,"dx":0.0025,"nx":19,"ny":19,"refTime":"2026-04-23T09:00:00:Z","depth":0,"parameterNumber":2,"parameterNumberName":"U-component_of_WINDS"},"data":[0,0,0,-3.9861,-3.9862,-3.9901,-3.9901,-3.996,-3.9961,0,0,0,0,0,0,0,0,0,0,0,-3.9856,-3.9857,-3.9861,-3.9862,-3.9901,-3.9901,-3.996,-3.9961,0,0,0,0,0,0,0,0,0,0,0,-3.9856,-3.9856,-3.9857,-3.9862,-3.9901,-3.9901,-3.996,-3.9927,0,0,0,0,0,0,0,0,0,0,-3.9887,-3.989,-3.9856,-3.9857,-3.9862,-3.9901,-3.9901,-3.9925,-3.9929,-3.9947,0,-3.9966,0,-3.9964,-3.9966,-3.9966,0,0,0,-3.9857,-3.9887,-3.9891,-3.9857,-3.9863,-3.9901,-3.9882,-3.9927,-3.9932,-3.9952,-3.9966,-3.9968,-3.9965,-3.9966,-3.9966,-4.0087,-4.0088,0,0,-3.9854,-3.9867,-3.9888,-3.9894,-3.989,-3.9881,-3.9883,-3.993,-3.9946,-3.9967,-3.9969,-3.9966,-3.9967,-3.9967,-4.0087,-4.0088,0,0,0,-3.9852,-3.9865,-3.9868,-3.9892,-3.9899,-3.9882,-3.9885,-3.9944,-3.9944,-3.997,-3.9967,-3.9967,-3.9968,-4.0086,-4.0087,-4.0137,0,0,0,-3.985,-3.9864,-3.9868,-3.9875,-3.9898,-3.9922,-3.9898,-3.9941,-3.9945,-3.9967,-3.9967,-3.9969,-4.0085,-4.0086,-4.0133,-4.0157,0,0,0,-3.9851,-3.9864,-3.9872,-3.9876,-3.9893,-3.9921,-3.9924,-3.9941,-3.9944,-3.9966,-3.9969,-4.0084,-4.0086,-4.013,-4.0152,-4.019,0,0,0,-3.9855,-3.9917,-3.9873,-3.9941,-3.9893,-3.9953,-3.9923,-3.9967,-3.9992,-3.9967,-4.0085,-4.0087,-4.013,-4.015,-4.0187,-4.0222,-4.0238,0,0,-3.994,-3.9928,-3.9966,-3.9928,-3.9998,-3.9946,-4.0023,-4.0034,-4.0026,-4.0067,-4.007,-4.0134,-4.0152,-4.0189,-4.0332,-4.0345,0,0,0,-3.9997,-4.0025,-4.0041,-4.0065,-4.0076,-4.0086,-4.0085,-4.0089,-4.0123,-4.005,-4.016,-4.017,-4.0191,-4.0207,-4.0218,-4.0234,-4.0096,-4.0096,-4.0095,-4.0132,-4.0117,-4.0179,-4.0169,-4.0193,-4.0191,-4.0208,-4.0212,-4.0192,-4.0218,-4.0229,-4.0317,-4.0336,-4.0345,-4.0361,-4.0249,-4.0249,-4.0249,-4.0249,-4.0251,-4.0286,-4.0256,-4.0305,-4.0289,-4.033,-4.0329,-4.0313,-4.0347,-4.0308,-4.0326,-4.0282,-4.0359,-4.0373,-4.0253,-4.0252,-4.0252,-4.0252,-4.0251,-4.0335,-4.0349,-4.0353,-4.0385,-4.0412,-4.04,-4.0433,-4.0418,-4.0404,-4.0422,-4.043,-4.0429,-4.0423,-4.0428,-4.0428,-4.0428,-4.0428,-4.0429,-4.0429,-4.0419,-4.0422,-4.0452,-4.0468,-4.048,-4.0495,-4.0493,-4.0504,-4.0512,-4.0498,-4.0498,-4.0472,-4.0371,-4.0344,-4.0433,-4.0433,-4.0432,-4.0432,-4.0431,-4.054,-4.051,-4.0556,-4.0569,-4.0584,-4.0609,-4.059,-4.0614,-4.0622,-4.0638,-4.0609,-4.0538,-4.0524,-4.0515,-4.0492,-4.0615,-4.0615,-4.0615,-4.0615,-4.0608,-4.06,-4.0642,-4.0662,-4.0681,-4.0667,-4.0718,-4.0717,-4.071,-4.0713,-4.0694,-4.0664,-4.0656,-4.0646,-4.0634,-4.0612,-4.0763,-4.0763,-4.0763,-4.0679,-4.0672,-4.0718,-4.0712,-4.0722,-4.0731,-4.0777,-4.08,-4.0788,-4.0769,-4.0715,-4.0708,-4.0659,-4.0645,-4.0621,-4.0603,-4.0563,0,0]},{"header":{"parameterUnit":"m.s-1","parameterCategory":1,"la1":30.2992,"la2":30.254,"lo1":-89.0895,"lo2":-89.0443,"dy":0.0025,"dx":0.0025,"nx":19,"ny":19,"refTime":"2026-04-23T09:00:00:Z","depth":0,"parameterNumber":3,"parameterNumberName":"V-component_of_WINDS"},"data":[0,0,0,3.2021,3.2025,3.2186,3.2187,3.2393,3.2395,0,0,0,0,0,0,0,0,0,0,0,3.1974,3.1975,3.2021,3.2025,3.2186,3.2187,3.2392,3.2395,0,0,0,0,0,0,0,0,0,0,0,3.1973,3.1975,3.1977,3.2026,3.2186,3.2187,3.2392,3.227,0,0,0,0,0,0,0,0,0,0,3.2114,3.207,3.1974,3.1977,3.2026,3.2186,3.2187,3.2264,3.2278,3.232,0,3.2358,0,3.238,3.2408,3.2409,0,0,0,3.2024,3.2059,3.2102,3.1977,3.2028,3.2185,3.2113,3.2272,3.2287,3.2338,3.2361,3.2369,3.2383,3.241,3.2411,3.2661,3.2662,0,0,3.2015,3.2003,3.2092,3.2112,3.2088,3.2108,3.2118,3.2281,3.2305,3.2362,3.2373,3.2387,3.2411,3.2413,3.266,3.2661,0,0,0,3.199,3.1996,3.2036,3.2104,3.2133,3.2113,3.2124,3.2298,3.2312,3.2376,3.2389,3.2412,3.2415,3.2658,3.266,3.2709,0,0,0,3.1985,3.1982,3.2032,3.2026,3.213,3.2217,3.2137,3.23,3.2319,3.2388,3.2412,3.2417,3.2657,3.2659,3.2705,3.2734,0,0,0,3.1963,3.1979,3.2003,3.2025,3.2094,3.2215,3.2239,3.2305,3.2328,3.2409,3.2418,3.2656,3.2659,3.2701,3.2728,3.2799,0,0,0,3.1936,3.2041,3.2003,3.2127,3.2092,3.2244,3.2238,3.2351,3.2427,3.2413,3.2657,3.266,3.27,3.2724,3.2794,3.2857,3.2881,0,0,3.2062,3.2056,3.213,3.2101,3.2257,3.2221,3.2384,3.2464,3.2482,3.26,3.2606,3.2706,3.2728,3.2798,3.3019,3.3038,0,0,0,3.2166,3.2219,3.2263,3.2336,3.2402,3.2461,3.2518,3.2548,3.265,3.254,3.275,3.2763,3.2805,3.2835,3.2852,3.289,3.2673,3.2673,3.2672,3.2326,3.2346,3.2471,3.2512,3.2582,3.2642,3.2702,3.2753,3.275,3.28,3.2835,3.2967,3.3002,3.3014,3.3054,3.2868,3.2868,3.2869,3.2869,3.2514,3.2594,3.2591,3.2712,3.2733,3.2833,3.2896,3.2892,3.2989,3.2941,3.2979,3.2926,3.3035,3.307,3.2873,3.2872,3.2871,3.2871,3.2871,3.2623,3.2665,3.2701,3.2812,3.2894,3.2931,3.3027,3.3041,3.3056,3.3093,3.3134,3.3133,3.3136,3.3111,3.3112,3.3112,3.3113,3.3113,3.3113,3.2721,3.2761,3.284,3.2921,3.2972,3.3041,3.3104,3.3155,3.3214,3.3218,3.3218,3.3212,3.3041,3.2999,3.312,3.3119,3.3118,3.3118,3.3117,3.2907,3.2868,3.299,3.3042,3.314,3.3223,3.3242,3.3344,3.3387,3.3434,3.3422,3.3292,3.3287,3.3274,3.3239,3.3415,3.3415,3.3415,3.3415,3.3,3.2999,3.313,3.3211,3.3293,3.3323,3.3462,3.3514,3.356,3.3589,3.3566,3.3521,3.3507,3.351,3.3492,3.346,3.3688,3.3688,3.3688,3.3117,3.3126,3.3241,3.3288,3.3367,3.3435,3.3567,3.3661,3.3706,3.37,3.3613,3.3601,3.3529,3.3503,3.3495,3.3467,3.3409,0,0]}]]